History for Ft Lauderdale, FL

Wednesday, March 22, 2017 — View Current Conditions

Jump to Data:

Date:
Airport Code:
Recently Viewed Airport Codes: KFLL
Daily Summary
  Actual Average Record
Temperature
Mean Temperature 72°F 73°F  
Max Temperature 83°F 80°F 93°F (2003)
Min Temperature 61°F 67°F 41°F (1924)
Degree Days
Heating Degree Days 0 0  
Month to date heating degree days 6 7  
Since 1 July heating degree days 35 109  
Cooling Degree Days 7 9  
Month to date cooling degree days 155 173  
Year to date cooling degree days 611 529  
Growing Degree Days 22 (Base 50)    
Moisture
Dew Point 56°F    
Average Humidity 60    
Maximum Humidity 84    
Minimum Humidity 36    
Precipitation
Precipitation 0.00 in 0.10 in 0.90 in (1925)
Month to date precipitation 0.69 2.31  
Year to date precipitation 3.97 8.90  
Snow
Snow 0.00 in in in ()
Month to date snowfall 0.0  
Since 1 July snowfall 0.0  
Snow Depth 0.00 in    
Sea Level Pressure
Sea Level Pressure 30.09 in    
Wind
Wind Speed 6 mph (West)    
Max Wind Speed 13 mph    
Max Gust Speed 17 mph    
Visibility 10 miles    
Events      
T = Trace of Precipitation, MM = Missing Value Source: NWS Daily Summary

Show full METARS

(help) - Comma Delimited File

Hourly Observations

Time(EDT) Temperature Dew Point Humidity Sea Level Pressure Visibility Wind Direction Wind Speed Gust Speed Precipitation Events Conditions
12:53 AM 66.0°F 52.0°F 60% 30.09 in 10.0 miles West 4.6 mph - N/A   Clear
1:53 AM 66.0°F 53.1°F 63% 30.09 in 10.0 miles WNW 5.8 mph - N/A   Clear
2:53 AM 63.0°F 53.1°F 70% 30.10 in 10.0 miles NW 4.6 mph - N/A   Clear
3:53 AM 62.6°F 53.6°F 72% 30.10 in 10.0 miles NW 6.9 mph - N/A   Partly Cloudy
4:53 AM 62.6°F 55.4°F 77% 30.10 in 10.0 miles NW 4.6 mph - N/A   Partly Cloudy
5:53 AM 61.0°F 55.9°F 83% 30.11 in 10.0 miles WNW 4.6 mph - N/A   Clear
6:53 AM 62.1°F 57.9°F 86% 30.11 in 10.0 miles West 3.5 mph - N/A   Clear
7:53 AM 62.1°F 57.9°F 86% 30.11 in 10.0 miles WNW 3.5 mph - N/A   Partly Cloudy
8:53 AM 66.9°F 57.9°F 73% 30.11 in 10.0 miles West 3.5 mph - N/A   Clear
9:53 AM 73.0°F 54.0°F 51% 30.11 in 10.0 miles West 9.2 mph - N/A   Clear
10:53 AM 73.9°F 55.0°F 52% 30.11 in 10.0 miles West 8.1 mph - N/A   Clear
11:53 AM 77.0°F 53.1°F 43% 30.12 in 10.0 miles WNW 5.8 mph - N/A   Clear
12:53 PM 79.0°F 54.0°F 42% 30.11 in 10.0 miles West 9.2 mph - N/A   Clear
1:53 PM 80.1°F 52.0°F 38% 30.09 in 10.0 miles Calm Calm - N/A   Clear
2:53 PM 82.9°F 53.1°F 36% 30.06 in 10.0 miles NNW 10.4 mph - N/A   Clear
3:53 PM 82.9°F 55.9°F 39% 30.04 in 10.0 miles East 5.8 mph - N/A   Clear
4:53 PM 80.1°F 55.9°F 43% 30.03 in 10.0 miles SE 10.4 mph - N/A   Clear
5:53 PM 78.1°F 57.0°F 48% 30.03 in 10.0 miles SE 11.5 mph - N/A   Clear
6:53 PM 77.0°F 57.0°F 50% 30.04 in 10.0 miles SE 9.2 mph - N/A   Clear
7:53 PM 75.0°F 57.9°F 55% 30.06 in 10.0 miles SSE 6.9 mph - N/A   Clear
8:53 PM 73.9°F 57.9°F 57% 30.08 in 10.0 miles Variable 3.5 mph - N/A   Clear
9:53 PM 73.9°F 59.0°F 59% 30.09 in 10.0 miles SSW 6.9 mph - N/A   Clear
10:53 PM 72.0°F 59.0°F 64% 30.10 in 10.0 miles SSW 4.6 mph - N/A   Clear
11:53 PM 72.0°F 57.9°F 61% 30.11 in 10.0 miles SSW 5.8 mph - N/A   Clear